W0BJ-1 Weather Reports


Display with metric or nautical units.
time (UTC)temp
F
wind
direction
speed
MPH
gust
MPH
rain 1hr
in
rain 24hr
in
rain mn
in
humidity
%
barometer
mb
20260906144039 75 26 5.0 13.0 0.00 0.01 0.00 84 1018.1
20260906143540 74 28 8.0 13.0 0.00 0.01 0.00 85 1018.0
20260906143135 74 9 7.0 13.0 0.00 0.01 0.00 86 1018.0
20260906142540 74 35 9.0 13.0 0.00 0.01 0.00 86 1017.9
20260906142040 74 19 8.0 13.0 0.00 0.01 0.00 87 1017.8
20260906141558 73 39 7.0 11.0 0.00 0.01 0.00 87 1017.8
20260906141040 73 13 7.0 12.0 0.00 0.01 0.00 88 1017.7
20260906140541 73 22 7.0 12.0 0.00 0.01 0.00 88 1017.8
20260906140105 73 5 6.0 11.0 0.00 0.01 0.00 88 1017.8
20260906135540 73 5 5.0 11.0 0.00 0.01 0.00 89 1017.8
20260906135042 72 355 5.0 10.0 0.00 0.01 0.00 90 1017.7
20260906134611 72 349 4.0 10.0 0.00 0.01 0.00 90 1017.6
20260906134040 71 24 5.0 10.0 0.00 0.01 0.00 90 1017.7
20260906133543 71 16 6.0 10.0 0.00 0.01 0.00 90 1017.7
20260906133103 71 35 6.0 11.0 0.00 0.01 0.00 90 1017.7
20260906132543 71 13 7.0 11.0 0.00 0.01 0.00 90 1017.6
20260906132041 71 352 6.0 9.0 0.00 0.01 0.00 90 1017.8
20260906131601 71 40 4.0 12.0 0.00 0.01 0.00 90 1017.8
20260906131039 71 48 6.0 12.0 0.00 0.01 0.00 91 1017.8
20260906130540 71 25 6.0 11.0 0.00 0.01 0.00 91 1017.6
20260906130056 71 37 6.0 11.0 0.00 0.01 0.00 91 1017.6
20260906125540 71 351 6.0 10.0 0.00 0.01 0.00 91 1017.6
20260906125040 71 47 6.0 10.0 0.00 0.01 0.00 91 1017.7
20260906124559 71 360 5.0 10.0 0.00 0.01 0.00 92 1017.6
20260906124040 71 5 4.0 10.0 0.00 0.01 0.00 92 1017.6
20260906123539 71 27 5.0 10.0 0.00 0.01 0.00 92 1017.6
20260906123135 71 344 4.0 8.0 0.00 0.01 0.00 92 1017.5
20260906122540 71 355 2.0 8.0 0.00 0.01 0.00 92 1017.4
20260906122039 71 36 4.0 8.0 0.00 0.01 0.00 92 1017.3
20260906121559 71 26 4.0 8.0 0.00 0.01 0.00 92 1017.2
20260906121039 71 15 4.0 8.0 0.00 0.01 0.00 92 1017.1
20260906120541 71 36 4.0 7.0 0.00 0.01 0.00 92 1016.8
20260906120059 71 35 4.0 7.0 0.00 0.01 0.00 92 1016.8
20260906115540 71 11 3.0 7.0 0.00 0.01 0.00 91 1016.9
20260906115040 71 9 4.0 7.0 0.00 0.01 0.00 91 1016.9
20260906114604 71 17 0.0 4.0 0.00 0.01 0.00 91 1016.8
20260906114038 71 0 0.0 5.0 0.00 0.01 0.00 91 1016.8
20260906113538 71 53 2.0 6.0 0.00 0.01 0.00 91 1016.7
20260906113057 71 42 3.0 7.0 0.00 0.01 0.00 91 1016.7
20260906112546 71 33 3.0 7.0 0.00 0.01 0.00 91 1016.7
20260906112039 71 19 4.0 6.0 0.00 0.01 0.00 91 1016.6
20260906111556 71 16 3.0 5.0 0.00 0.01 0.00 91 1016.7
20260906111038 71 29 2.0 5.0 0.00 0.01 0.00 91 1016.6
20260906110540 72 19 2.0 5.0 0.00 0.01 0.00 91 1016.7
20260906110105 72 34 2.0 4.0 0.00 0.01 0.00 91 1016.7
20260906105540 72 34 2.0 5.0 0.00 0.01 0.00 91 1016.8
20260906105040 72 22 2.0 5.0 0.00 0.01 0.00 91 1016.7
20260906104600 72 49 2.0 4.0 0.00 0.01 0.00 91 1016.7
20260906104040 72 36 2.0 4.0 0.00 0.01 0.00 91 1016.5
20260906103538 72 36 2.0 4.0 0.00 0.01 0.00 91 1016.5
20260906103057 72 17 2.0 5.0 0.00 0.01 0.00 91 1016.5
20260906102539 73 24 2.0 5.0 0.00 0.01 0.00 90 1016.5
20260906102040 73 27 2.0 5.0 0.00 0.01 0.00 90 1016.5
20260906101604 73 36 2.0 4.0 0.00 0.01 0.00 90 1016.5
20260906101039 73 28 2.0 4.0 0.00 0.01 0.00 90 1016.5
20260906100541 73 40 1.0 3.0 0.00 0.01 0.00 90 1016.4
20260906100101 73 40 1.0 3.0 0.00 0.01 0.00 89 1016.3
20260906095539 73 40 1.0 4.0 0.00 0.01 0.00 89 1016.3
20260906095040 73 40 1.0 4.0 0.00 0.01 0.00 89 1016.3
20260906094607 73 47 2.0 5.0 0.00 0.01 0.00 89 1016.2
20260906094039 74 50 3.0 5.0 0.00 0.01 0.00 88 1016.2
20260906093541 74 38 1.0 4.0 0.00 0.01 0.00 88 1016.2
20260906093058 74 0 0.0 0.0 0.00 0.01 0.00 87 1016.2
20260906092540 74 0 0.0 0.0 0.00 0.01 0.00 87 1016.0
20260906092040 74 0 0.0 2.0 0.00 0.01 0.00 86 1015.9
20260906091608 74 0 0.0 5.0 0.00 0.01 0.00 86 1015.8
20260906091042 74 82 1.0 6.0 0.00 0.01 0.00 86 1015.8
20260906090540 75 55 3.0 7.0 0.00 0.01 0.00 86 1015.8
20260906090106 75 45 3.0 7.0 0.00 0.01 0.00 85 1015.9
20260906085544 75 23 3.0 10.0 0.00 0.01 0.00 84 1015.8
20260906085043 75 44 5.0 10.0 0.00 0.01 0.00 84 1015.8
20260906084604 75 20 3.0 9.0 0.00 0.01 0.00 83 1015.9
20260906084041 75 46 3.0 12.0 0.00 0.01 0.00 83 1015.8
20260906083540 75 51 4.0 12.0 0.00 0.01 0.00 83 1015.8
20260906083057 75 42 6.0 14.0 0.00 0.01 0.00 83 1015.8
20260906082540 75 57 7.0 14.0 0.00 0.01 0.00 85 1015.8
20260906082043 75 24 6.0 12.0 0.00 0.01 0.00 86 1015.8
20260906081558 75 41 4.0 10.0 0.00 0.01 0.00 87 1015.8
20260906081039 75 44 5.0 10.0 0.00 0.01 0.00 87 1015.8
20260906080540 76 30 4.0 8.0 0.00 0.01 0.00 88 1015.7
20260906075539 76 36 4.0 7.0 0.00 0.01 0.00 88 1015.6
20260906075040 76 34 3.0 7.0 0.00 0.01 0.00 88 1015.6
20260906074554 76 42 3.0 5.0 0.00 0.01 0.00 88 1015.7
20260906074039 77 38 3.0 5.0 0.00 0.01 0.00 88 1015.6
20260906073539 77 41 2.0 5.0 0.00 0.01 0.00 88 1015.6
20260906073058 77 41 2.0 5.0 0.00 0.01 0.00 87 1015.7
20260906072540 77 41 3.0 8.0 0.00 0.01 0.00 87 1015.7
20260906072039 77 34 3.0 8.0 0.00 0.01 0.00 87 1015.7
20260906071557 77 58 4.0 10.0 0.00 0.01 0.00 87 1015.7
20260906071041 77 24 5.0 10.0 0.00 0.01 0.00 87 1015.7
20260906070540 78 34 3.0 8.0 0.00 0.01 0.00 87 1015.7
20260906065539 78 40 4.0 6.0 0.00 0.01 0.00 87 1015.8
20260906065040 78 43 3.0 8.0 0.00 0.01 0.00 86 1015.8
20260906064553 78 44 3.0 8.0 0.00 0.01 0.00 86 1015.8
20260906064039 78 33 3.0 8.0 0.00 0.01 0.00 86 1015.8
20260906063538 79 36 4.0 10.0 0.00 0.01 0.00 86 1015.8
20260906063101 79 46 3.0 10.0 0.00 0.01 0.00 86 1015.7
20260906062539 79 38 3.0 6.0 0.00 0.01 0.00 85 1015.7
20260906062040 79 44 4.0 6.0 0.00 0.01 0.00 85 1015.7
20260906061600 79 41 3.0 6.0 0.00 0.01 0.00 84 1015.6
20260906061039 79 27 4.0 11.0 0.00 0.01 0.00 84 1015.7
20260906060540 79 9 6.0 11.0 0.00 0.01 0.00 84 1015.6
20260906060059 79 41 5.0 9.0 0.00 0.01 0.00 84 1015.7
20260906055539 80 33 3.0 8.0 0.00 0.01 0.00 84 1015.6
20260906055039 79 51 4.0 6.0 0.00 0.01 0.00 84 1015.6
20260906054556 79 45 3.0 7.0 0.00 0.01 0.00 84 1015.5
20260906054039 79 34 3.0 7.0 0.00 0.01 0.00 84 1015.6
20260906053539 79 14 2.0 4.0 0.00 0.01 0.00 84 1015.6
20260906053107 79 14 1.0 3.0 0.00 0.01 0.00 84 1015.5
20260906052544 79 14 1.0 3.0 0.00 0.01 0.00 84 1015.6
20260906052040 79 14 2.0 3.0 0.00 0.01 0.00 84 1015.6
20260906051559 80 14 2.0 4.0 0.00 0.01 0.00 83 1015.6
20260906051040 80 14 2.0 4.0 0.00 0.01 0.00 83 1015.6
20260906050542 80 14 0.0 3.0 0.00 0.01 0.00 83 1015.5
20260906050056 80 0 0.0 0.0 0.00 0.01 0.00 82 1015.5
20260906045539 80 0 0.0 0.0 0.00 0.01 0.01 82 1015.4
20260906045039 80 0 0.0 0.0 0.00 0.01 0.01 81 1015.4
20260906044553 80 0 0.0 0.0 0.00 0.01 0.01 81 1015.4
20260906044039 80 0 0.0 0.0 0.00 0.01 0.01 81 1015.4
20260906043539 81 0 0.0 0.0 0.00 0.01 0.01 81 1015.4
20260906043102 81 0 0.0 0.0 0.00 0.01 0.01 80 1015.3
20260906042539 81 0 0.0 0.0 0.00 0.01 0.01 80 1015.2
20260906042039 81 0 0.0 0.0 0.00 0.01 0.01 79 1015.2
20260906041600 81 0 0.0 0.0 0.00 0.01 0.01 79 1015.1
20260906041038 81 0 0.0 2.0 0.00 0.01 0.01 79 1015.0
20260906040543 81 0 0.0 2.0 0.00 0.01 0.01 77 1015.0
20260906040059 82 14 0.0 2.0 0.00 0.01 0.01 77 1015.0
20260906035541 82 0 0.0 2.0 0.00 0.01 0.01 77 1014.9
20260906035039 82 14 0.0 3.0 0.00 0.01 0.01 77 1014.8
20260906034554 82 0 0.0 4.0 0.00 0.01 0.01 77 1014.9
20260906034039 82 14 1.0 4.0 0.00 0.01 0.01 77 1015.0
20260906033541 82 0 0.0 4.0 0.00 0.01 0.01 77 1014.8
20260906033111 82 0 1.0 4.0 0.00 0.01 0.01 77 1014.8
20260906032539 83 14 2.0 4.0 0.00 0.01 0.01 76 1014.7
20260906032040 83 14 2.0 4.0 0.00 0.01 0.01 76 1014.6
20260906031557 83 14 2.0 4.0 0.00 0.01 0.01 75 1014.7
20260906031039 83 14 2.0 4.0 0.00 0.01 0.01 75 1014.7
20260906030540 84 14 2.0 4.0 0.00 0.01 0.01 74 1014.5
20260906030057 84 14 2.0 5.0 0.00 0.01 0.01 74 1014.5
20260906025540 84 14 2.0 5.0 0.00 0.01 0.01 73 1014.4
20260906025041 84 14 3.0 6.0 0.00 0.01 0.01 73 1014.5
20260906024558 84 5 3.0 8.0 0.00 0.01 0.01 73 1014.5
20260906024039 84 355 3.0 9.0 0.00 0.01 0.01 72 1014.5
20260906023544 84 355 5.0 9.0 0.00 0.01 0.01 72 1014.3
20260906023100 84 5 4.0 8.0 0.00 0.01 0.01 72 1014.3
20260906022539 85 9 4.0 8.0 0.00 0.01 0.01 71 1014.3
20260906022043 85 5 4.0 9.0 0.00 0.01 0.01 71 1014.2
20260906021559 85 25 3.0 9.0 0.00 0.01 0.01 70 1014.1
20260906021039 85 44 4.0 10.0 0.00 0.01 0.01 70 1014.1
20260906020540 85 360 4.0 10.0 0.00 0.01 0.01 69 1014.0
20260906020105 85 17 6.0 10.0 0.00 0.01 0.01 69 1013.9
20260906015539 85 346 6.0 10.0 0.00 0.01 0.01 68 1013.9
20260906015039 85 5 5.0 10.0 0.00 0.01 0.01 68 1013.8
20260906014602 85 351 4.0 8.0 0.00 0.01 0.01 68 1013.7
20260906014040 84 10 4.0 8.0 0.00 0.01 0.01 68 1013.7
20260906013542 84 355 5.0 8.0 0.00 0.01 0.01 68 1013.6
20260906013109 84 15 4.0 8.0 0.00 0.01 0.01 68 1013.6
20260906012542 84 360 4.0 8.0 0.00 0.01 0.01 68 1013.5
20260906012037 84 5 3.0 5.0 0.00 0.01 0.01 68 1013.4
20260906011607 84 5 3.0 5.0 0.00 0.01 0.01 67 1013.4
20260906011038 85 5 2.0 4.0 0.00 0.01 0.01 67 1013.3
20260906010539 85 5 2.0 4.0 0.00 0.01 0.01 65 1013.4
20260906010107 85 5 1.0 3.0 0.00 0.01 0.01 65 1013.3
20260906005539 86 5 0.0 3.0 0.00 0.01 0.01 64 1013.3
20260906005041 86 0 0.0 0.0 0.00 0.01 0.01 64 1013.2
20260906004603 87 0 0.0 0.0 0.00 0.01 0.01 64 1013.2
20260906004041 87 0 0.0 0.0 0.00 0.01 0.01 66 1013.1
20260906003539 88 0 0.0 0.0 0.00 0.01 0.01 67 1013.1
20260906003102 88 0 0.0 0.0 0.00 0.01 0.01 66 1013.1
20260906002543 89 0 0.0 0.0 0.00 0.01 0.01 66 1013.0
20260906002039 89 0 0.0 0.0 0.00 0.01 0.01 65 1013.0
20260906001555 89 0 0.0 0.0 0.00 0.01 0.01 64 1013.2
20260906001039 90 0 0.0 0.0 0.00 0.01 0.01 63 1013.2
20260906000539 90 0 0.0 0.0 0.00 0.01 0.01 64 1013.2
20260906000106 90 0 0.0 0.0 0.00 0.01 0.01 63 1013.2
20260905235539 90 0 0.0 0.0 0.00 0.01 0.01 62 1013.2
20260905235039 90 0 0.0 0.0 0.00 0.01 0.01 61 1013.2
20260905234559 90 0 0.0 0.0 0.00 0.01 0.01 61 1013.3
20260905234037 90 0 0.0 0.0 0.00 0.01 0.01 61 1013.3
20260905233538 90 0 0.0 0.0 0.00 0.01 0.01 61 1013.3
20260905233059 90 0 0.0 0.0 0.00 0.01 0.01 60 1013.3
20260905232538 90 0 0.0 2.0 0.00 0.01 0.01 61 1013.4
20260905232038 91 0 0.0 2.0 0.00 0.01 0.01 60 1013.3
20260905231553 91 5 0.0 3.0 0.00 0.01 0.01 59 1013.4
20260905231039 91 0 0.0 8.0 0.00 0.01 0.01 58 1013.4
20260905230540 91 5 1.0 8.0 0.00 0.01 0.01 58 1013.4
20260905230058 92 9 2.0 5.0 0.00 0.01 0.01 56 1013.5
20260905225543 92 0 2.0 7.0 0.00 0.01 0.01 57 1013.4
20260905225038 92 242 3.0 8.0 0.00 0.01 0.01 56 1013.2
20260905224556 92 251 3.0 8.0 0.00 0.01 0.01 56 1013.2
20260905224038 92 246 3.0 8.0 0.00 0.01 0.01 56 1013.1
20260905223541 92 235 2.0 7.0 0.00 0.01 0.01 57 1013.2
20260905223101 92 246 2.0 9.0 0.00 0.01 0.01 57 1013.1
20260905222541 92 0 1.0 10.0 0.00 0.01 0.01 59 1013.0
20260905222038 92 252 6.0 10.0 0.00 0.01 0.01 56 1013.1
20260905221603 92 267 4.0 9.0 0.00 0.01 0.01 57 1013.1
20260905221039 93 254 1.0 5.0 0.00 0.01 0.01 60 1013.1
20260905220537 93 254 2.0 5.0 0.00 0.01 0.01 59 1013.1
20260905215537 94 279 0.0 3.0 0.00 0.01 0.01 56 1013.2
20260905215039 94 0 0.0 0.0 0.00 0.01 0.01 56 1013.3
20260905214553 94 0 0.0 0.0 0.00 0.01 0.01 54 1013.3
20260905214036 95 0 0.0 3.0 0.00 0.01 0.01 53 1013.3
20260905213539 95 0 0.0 4.0 0.00 0.01 0.01 51 1013.3
20260905213107 95 281 2.0 4.0 0.00 0.01 0.01 50 1013.3
20260905212537 96 287 2.0 4.0 0.00 0.01 0.01 49 1013.3
20260905212036 96 244 1.0 7.0 0.00 0.01 0.01 50 1013.2
20260905211559 96 0 2.0 9.0 0.00 0.01 0.01 49 1013.2
20260905211037 96 233 3.0 9.0 0.00 0.01 0.01 50 1013.2
20260905210539 96 271 3.0 7.0 0.00 0.01 0.01 52 1013.2
20260905210118 95 286 1.0 4.0 0.00 0.01 0.01 51 1013.2
20260905205536 95 0 1.0 4.0 0.00 0.01 0.01 53 1013.2
20260905205038 95 306 0.0 3.0 0.00 0.01 0.01 52 1013.4
20260905204602 95 321 0.0 4.0 0.00 0.01 0.01 51 1013.4
20260905204037 96 321 2.0 4.0 0.00 0.01 0.01 49 1013.6
20260905203537 96 350 2.0 5.0 0.00 0.01 0.01 47 1013.5
20260905203102 96 36 2.0 5.0 0.00 0.01 0.01 49 1013.6
20260905202536 95 24 3.0 5.0 0.00 0.01 0.01 50 1013.6
20260905202037 95 43 3.0 5.0 0.00 0.01 0.01 49 1013.5
20260905201556 94 23 3.0 5.0 0.00 0.01 0.01 52 1013.7
20260905201037 93 80 0.0 5.0 0.00 0.01 0.01 52 1013.9
20260905200536 93 355 2.0 5.0 0.00 0.01 0.01 52 1013.9
20260905200056 92 5 2.0 5.0 0.00 0.01 0.01 59 1013.8
20260905195537 90 350 1.0 5.0 0.00 0.01 0.01 65 1013.8
20260905195036 89 19 1.0 3.0 0.01 0.01 0.01 71 1013.9
20260905194608 87 19 0.0 3.0 0.01 0.01 0.01 74 1013.9
20260905194037 86 19 0.0 3.0 0.01 0.01 0.01 75 1014.0
20260905193538 85 0 1.0 3.0 0.01 0.01 0.01 75 1014.1
20260905193057 84 0 0.0 2.0 0.01 0.01 0.01 75 1014.3
20260905192537 84 0 0.0 5.0 0.01 0.01 0.01 75 1014.3
20260905192037 83 19 0.0 9.0 0.01 0.01 0.01 73 1014.4
20260905191608 83 333 2.0 9.0 0.01 0.01 0.01 69 1014.5
20260905191037 83 288 3.0 9.0 0.01 0.01 0.01 68 1014.5
20260905190541 83 270 2.0 13.0 0.01 0.01 0.01 65 1014.4
20260905190119 84 333 4.0 20.0 0.01 0.01 0.01 62 1014.4
20260905185536 85 328 6.0 21.0 0.00 0.00 0.00 58 1014.7
20260905185036 86 352 11.0 24.0 0.00 0.00 0.00 55 1014.5
20260905184624 88 5 11.0 24.0 0.00 0.00 0.00 51 1015.0
20260905184037 91 42 14.0 24.0 0.00 0.00 0.00 48 1015.1
20260905183537 94 360 13.0 24.0 0.00 0.00 0.00 46 1015.0
20260905183101 97 5 9.0 18.0 0.00 0.00 0.00 47 1014.6
20260905182537 98 355 3.0 10.0 0.00 0.00 0.00 42 1014.4
20260905182037 98 240 3.0 10.0 0.00 0.00 0.00 42 1014.5
20260905181601 99 306 3.0 12.0 0.00 0.00 0.00 40 1014.6
20260905181036 99 327 4.0 12.0 0.00 0.00 0.00 38 1014.5
20260905180537 99 247 6.0 12.0 0.00 0.00 0.00 39 1014.5
20260905180056 99 299 6.0 12.0 0.00 0.00 0.00 39 1014.6
20260905175537 99 255 3.0 14.0 0.00 0.00 0.00 42 1014.7
20260905175037 99 326 7.0 14.0 0.00 0.00 0.00 39 1014.7
20260905174600 99 232 5.0 13.0 0.00 0.00 0.00 41 1014.6
20260905174037 99 279 3.0 10.0 0.00 0.00 0.00 42 1014.7
20260905173536 99 257 4.0 10.0 0.00 0.00 0.00 43 1014.9
20260905173104 99 360 5.0 11.0 0.00 0.00 0.00 41 1014.8
20260905172537 99 264 4.0 11.0 0.00 0.00 0.00 44 1014.9
20260905172041 98 255 3.0 9.0 0.00 0.00 0.00 43 1014.8
20260905171610 98 336 3.0 8.0 0.00 0.00 0.00 42 1014.9
20260905171037 98 0 2.0 7.0 0.00 0.00 0.00 44 1014.9
20260905170536 98 297 2.0 7.0 0.00 0.00 0.00 43 1015.0
20260905170057 98 286 2.0 8.0 0.00 0.00 0.00 48 1015.0
20260905165536 97 113 3.0 8.0 0.00 0.00 0.00 48 1015.2
20260905165036 97 92 1.0 7.0 0.00 0.00 0.00 47 1015.2
20260905164603 97 223 3.0 7.0 0.00 0.00 0.00 47 1015.3
20260905164040 97 265 2.0 6.0 0.00 0.00 0.00 49 1015.4
20260905163544 97 0 1.0 6.0 0.00 0.00 0.00 51 1015.5
20260905163112 96 355 2.0 6.0 0.00 0.00 0.00 50 1015.5
20260905162541 96 0 1.0 7.0 0.00 0.00 0.00 50 1015.6
20260905162039 96 298 3.0 8.0 0.00 0.00 0.00 52 1015.6
20260905161558 96 22 3.0 8.0 0.00 0.00 0.00 51 1015.6
20260905161042 95 250 3.0 6.0 0.00 0.00 0.00 51 1015.6
20260905160542 95 303 1.0 6.0 0.00 0.00 0.00 52 1015.7
20260905160056 95 298 2.0 5.0 0.00 0.00 0.00 53 1015.7
20260905155540 95 279 2.0 4.0 0.00 0.00 0.00 53 1015.6
20260905155040 94 271 1.0 4.0 0.00 0.00 0.00 54 1015.7
20260905154617 94 322 0.0 4.0 0.00 0.00 0.00 55 1015.8
20260905154040 94 269 1.0 4.0 0.00 0.00 0.00 54 1015.8
20260905153543 93 40 1.0 4.0 0.00 0.00 0.00 58 1015.7
20260905153112 93 300 0.0 5.0 0.00 0.00 0.00 57 1015.6
20260905152540 92 229 2.0 5.0 0.00 0.00 0.00 58 1015.7
20260905152045 92 19 2.0 5.0 0.00 0.00 0.00 56 1015.7
20260905151605 91 245 1.0 5.0 0.00 0.00 0.00 58 1015.7
20260905151040 91 355 1.0 7.0 0.00 0.00 0.00 59 1015.6
20260905150540 90 240 1.0 7.0 0.00 0.00 0.00 60 1015.6
20260905150051 90 266 1.0 6.0 0.00 0.00 0.00 60 1015.6
20260905145541 89 0 3.0 6.0 0.00 0.00 0.00 60 1015.6
20260905145040 89 284 2.0 7.0 0.00 0.00 0.00 62 1015.5
20260905144558 88 238 2.0 9.0 0.00 0.00 0.00 63 1015.5